Temperature
14 14 14 14 14 14 14 14 14 15 15 15 15 15 16 16 16 16 17 17 17 17 17 17 17 17 17 17 17 17 18 17 18 18 18 18 18 18 18 18 17 17 17
14 14 14 14 14 14 14 14 14 14 14 15 15 15 16 16 16 16 17 17 17 17 17 17 17 17 17 17 17 17 17 17 17 18 18 18 18 18 18 18 17 17 17
13 13 13 13 13 13 14 14 14 14 14 14 15 15 15 16 16 16 16 17 17 17 17 17 17 17 17 17 17 17 17 17 17 17 17 17 17 17 18 18 17 17 17
13 13 13 13 13 13 13 13 14 14 14 14 15 15 15 15 16 16 16 16 17 17 17 17 17 17 17 17 17 17 17 17 17 17 17 17 17 17 17 17 17 17 17
13 13 13 13 13 13 13 13 13 14 14 14 14 15 15 15 15 16 16 16 16 16 17 17 17 17 17 17 17 17 17 17 17 17 17 17 17 17 17 17 17 17 17
13 13 13 13 13 13 13 13 13 13 14 14 14 15 15 15 15 15 16 16 16 16 16 17 17 17 17 17 17 17 17 17 17 17 17 17 17 17 17 17 17 17 17
13 13 13 13 13 13 13 13 13 13 14 14 14 14 14 15 15 15 15 16 16 16 16 16 16 16 16 17 17 17 17 17 17 17 17 17 17 17 17 17 17 17 17
13 13 13 13 13 13 13 13 13 13 13 13 14 14 14 14 15 15 15 15 16 16 16 16 16 16 16 16 17 17 17 17 17 17 17 17 17 17 17 17 17 17 17
13 13 13 13 13 12 13 13 13 13 13 13 13 14 14 14 15 15 15 15 15 16 16 16 16 16 16 16 16 17 17 17 17 17 17 17 17 17 17 17 17 17 17
13 13 13 13 12 12 12 12 13 13 13 13 13 14 14 14 14 14 15 15 15 15 16 16 16 16 16 16 16 16 16 17 17 17 17 17 17 17 17 17 17 17 17
13 13 13 12 12 12 12 12 13 13 13 13 13 13 14 14 14 14 14 15 15 15 15 16 16 16 16 16 16 16 16 16 17 17 17 17 17 17 17 17 17 17 16
13 13 13 13 13 12 12 12 12 13 13 13 13 13 13 14 14 14 14 14 14 15 15 15 15 16 16 16 16 16 16 16 16 16 16 16 16 16 16 16 17 16 16
13 13 13 13 13 13 13 13 13 13 13 13 13 13 13 13 14 14 14 14 14 14 15 15 15 15 15 15 16 16 16 16 16 16 16 16 16 16 16 16 16 16 16
13 13 13 13 13 13 13 13 13 13 13 13 13 13 13 13 13 13 14 14 14 14 14 14 15 15 15 15 15 15 16 16 16 16 16 16 16 16 16 16 16 16 16
13 13 13 13 13 13 13 13 13 13 12 13 13 13 13 13 13 13 13 13 13 13 14 14 14 14 15 15 15 15 15 15 16 16 16 16 16 16 16 16 16 16 16
13 13 13 13 13 13 13 13 13 13 13 12 12 12 13 13 13 13 13 13 13 13 13 14 14 14 14 14 15 15 15 15 15 15 16 16 16 16 16 16 16 16 16
14 13 13 13 13 13 13 13 13 13 13 13 12 12 13 13 13 13 13 13 13 13 13 13 14 14 14 14 14 14 15 15 15 15 15 15 15 15 15 15 15 16 16
14 14 13 13 13 13 13 13 13 13 13 13 13 12 12 12 12 13 13 13 13 13 13 13 13 13 14 14 14 14 14 14 14 15 15 15 15 15 15 15 15 15 15
14 14 13 13 13 13 13 13 13 13 13 13 13 13 13 12 12 12 12 13 13 13 13 13 13 13 13 13 13 14 14 14 14 14 14 14 14 14 14 15 15 15 15
14 14 14 14 13 13 13 13 13 13 13 13 13 13 13 13 13 12 12 12 12 12 12 13 13 13 13 13 13 13 13 13 14 14 14 14 14 14 14 14 14 14 14
14 14 14 14 13 13 13 13 13 13 13 13 13 13 13 13 13 13 12 12 12 12 12 12 12 12 12 12 13 13 13 13 13 13 13 14 14 14 14 14 14 14 14
14 14 14 14 14 13 13 13 13 13 13 13 13 13 13 13 13 13 12 12 12 12 12 12 12 12 12 12 12 12 12 12 13 13 13 13 13 13 13 13 14 14 14
14 14 14 14 14 13 13 13 13 13 13 13 12 12 12 12 12 12 12 12 12 12 12 12 12 12 12 12 12 12 12 12 12 12 12 13 13 13 13 13 13 13 13
14 14 14 14 14 14 13 13 13 13 12 12 12 12 12 12 12 12 12 12 12 12 12 12 12 12 12 12 12 12 12 12 12 12 12 12 12 12 12 12 12 13 12
15 14 14 14 14 14 13 13 13 12 12 12 12 12 12 12 12 12 12 12 12 12 12 11 11 11 12 11 11 11 11 11 11 11 11 11 12 12 12 12 12 12 12
15 14 14 14 14 13 13 13 13 12 12 12 12 12 12 11 11 11 11 11 11 11 11 11 11 11 11 11 11 11 11 11 11 11 11 11 11 11 11 11 11 11 11
Wind_Speed
1 2 2 3 4 4 3 2 2 2 2 2 2 2 2 3 3 4 4 5 5 4 4 6 8 9 10 10 10 10 9 9 9 9 10 10 9 10 10 10 11 11 11
1 1 2 2 3 3 3 2 2 2 2 2 2 2 2 3 3 4 4 4 4 4 3 5 6 7 9 10 11 11 11 10 10 10 10 10 10 10 11 11 11 11 11
1 1 1 2 3 4 3 2 2 1 2 2 2 2 2 2 2 2 2 2 3 3 3 4 5 6 7 9 10 11 11 11 11 11 11 11 11 11 11 11 11 11 11
2 1 1 2 3 3 2 2 1 1 2 2 2 2 1 1 1 2 1 1 2 2 3 4 4 6 6 8 9 11 11 12 12 11 11 11 12 12 12 12 11 11 11
2 1 1 2 3 2 2 2 1 1 1 2 2 1 1 1 1 1 1 1 2 2 3 3 3 4 6 7 8 10 11 12 12 12 12 12 12 12 12 12 12 11 11
3 2 1 2 2 2 2 2 1 1 1 1 1 1 2 2 1 1 1 1 1 2 3 2 2 2 4 6 6 8 10 11 12 13 13 13 13 13 13 13 12 12 11
3 2 1 2 2 2 2 2 1 1 2 1 1 2 3 2 2 1 1 1 1 1 1 2 2 2 3 4 6 7 9 11 12 13 13 14 14 13 13 13 13 13 12
3 2 1 1 2 1 2 2 1 1 1 2 2 2 2 3 3 2 2 1 1 1 0 1 2 3 3 3 4 6 7 9 11 13 13 13 14 15 15 14 14 13 13
3 2 2 1 1 1 2 2 1 0 1 1 1 2 2 1 2 2 2 2 2 1 1 0 1 2 3 4 4 5 6 7 10 11 12 13 14 15 15 15 14 14 14
3 3 2 2 1 1 2 2 0 0 1 0 1 1 1 2 1 1 2 2 2 2 2 1 0 1 2 3 4 4 6 7 8 10 11 12 13 14 15 15 15 15 15
3 3 2 1 1 1 1 2 1 0 1 1 1 0 1 1 1 2 1 2 3 2 2 2 1 0 1 2 3 4 6 6 7 9 10 11 12 13 14 15 15 15 16
3 3 2 1 1 1 1 1 1 0 0 1 1 1 1 1 1 1 1 0 1 2 2 2 1 1 0 2 3 3 5 6 7 8 9 10 11 12 13 15 15 14 15
2 3 2 2 2 2 1 1 0 0 0 1 1 1 1 1 1 2 2 1 1 2 2 2 2 1 1 1 0 1 3 5 6 7 7 8 9 10 11 12 13 14 14
4 4 2 2 2 1 1 0 0 0 0 0 1 1 0 0 1 1 2 2 1 2 2 2 2 2 2 2 2 1 0 2 5 5 6 7 7 8 9 10 11 12 12
3 3 2 2 1 1 0 0 0 0 0 0 0 0 0 1 0 1 1 2 3 1 1 2 2 2 2 2 3 2 1 0 2 4 4 5 6 7 8 8 9 10 11
3 2 2 2 1 1 0 1 0 1 0 0 0 0 0 1 0 0 1 1 2 3 1 2 2 2 2 2 3 2 2 1 0 2 3 4 5 6 7 8 8 8 8
3 3 3 2 2 2 1 1 1 0 0 1 1 0 1 0 0 0 1 1 1 2 2 2 1 2 2 2 3 3 2 2 2 1 3 4 5 5 6 6 7 7 7
4 4 3 3 3 2 2 2 2 2 2 1 1 1 1 0 0 0 1 1 1 2 2 1 1 2 2 2 2 2 2 2 2 2 1 2 3 4 5 5 6 6 7
4 3 3 3 4 3 3 3 3 3 3 3 2 2 2 1 1 1 1 1 1 1 2 2 1 1 1 2 2 2 2 2 2 2 1 0 1 3 3 4 5 6 7
4 4 4 4 4 3 3 3 3 3 3 3 2 3 3 3 3 3 2 2 2 2 2 1 0 1 1 2 1 1 1 2 2 2 2 2 1 1 1 3 4 5 6
5 5 4 4 3 3 4 4 4 4 3 3 2 3 3 4 5 5 3 3 3 2 2 1 0 0 1 1 1 1 1 2 1 1 2 1 1 1 2 3 3 4 5
5 4 5 5 4 4 6 7 5 4 3 3 3 2 2 2 3 4 4 5 6 5 4 2 1 1 2 1 1 1 0 1 1 2 1 2 1 1 2 2 2 2 3
5 5 5 5 5 6 7 6 7 5 4 3 3 2 2 2 2 2 2 3 3 4 5 4 3 3 2 2 2 1 0 0 1 2 1 2 1 1 1 2 3 2 2
6 6 6 6 5 6 7 6 6 4 3 3 3 3 3 2 2 3 3 2 1 1 2 3 3 2 2 2 2 2 2 1 1 1 1 1 2 1 2 3 4 4 3
6 6 5 6 6 6 7 7 6 3 3 3 2 3 3 3 4 5 5 4 2 1 2 4 3 3 3 3 2 2 1 1 1 1 2 1 1 2 2 1 3 5 5
8 7 6 6 7 7 8 8 8 4 3 3 2 2 3 4 5 5 5 5 4 2 2 3 4 4 4 4 4 2 2 1 1 1 2 1 1 1 2 1 1 4 5
Wind_Direction
22 14 7 8 358 352 346 331 331 332 324 313 290 261 257 246 240 247 262 279 282 275 246 220 211 210 208 204 199 194 189 183 175 172 168 163 159 154 148 143 139 137 134
59 28 6 356 348 342 334 322 310 312 308 305 304 287 261 245 238 245 253 276 289 284 266 232 216 216 215 210 204 199 194 189 183 179 176 171 165 160 155 153 150 146 142
46 40 10 347 329 332 336 337 324 324 316 319 305 295 263 245 230 235 244 255 279 281 275 250 225 218 218 212 209 204 198 194 188 184 181 176 171 166 162 160 158 154 150
39 46 12 338 335 341 345 332 337 323 319 322 309 299 288 266 241 235 235 245 257 268 278 274 244 222 219 219 215 208 203 198 192 188 185 179 175 172 170 168 166 163 159
14 31 353 327 342 349 346 327 356 297 302 320 303 303 317 306 286 283 275 248 251 250 258 273 262 230 216 219 217 213 209 202 196 193 188 183 181 179 177 174 173 172 168
1 8 345 339 351 359 348 341 330 329 292 305 325 13 348 339 342 337 292 273 263 255 243 251 246 236 215 213 215 217 214 207 201 197 192 188 186 185 184 181 181 177 175
351 358 342 340 349 355 329 325 322 347 356 355 45 20 360 2 13 352 332 5 327 279 241 218 211 206 214 209 213 218 220 213 206 202 197 193 191 190 191 189 187 185 184
338 330 325 323 332 336 347 352 7 7 0 30 85 82 18 359 352 360 7 20 326 309 276 229 201 195 202 195 209 217 221 218 210 205 202 199 197 194 196 195 194 192 192
333 334 320 310 322 329 321 318 335 81 14 2 49 121 130 218 312 337 357 8 347 359 352 337 186 186 193 195 202 217 220 219 215 210 205 205 204 201 199 199 200 199 199
332 332 324 314 316 318 315 307 44 183 140 3 356 35 123 159 151 343 339 352 0 14 360 349 325 197 187 196 200 211 223 221 216 209 206 209 210 208 204 205 205 206 206
324 326 325 321 327 311 301 319 358 89 150 168 160 91 64 61 86 132 345 341 355 356 358 345 344 15 172 194 202 218 223 219 216 215 212 212 215 216 214 211 211 211 212
311 317 318 314 309 300 295 294 300 134 132 145 141 140 144 136 154 135 152 346 341 326 337 351 5 353 64 187 207 221 218 215 215 217 218 215 216 219 219 216 216 216 218
290 292 302 295 290 283 284 297 13 59 158 142 157 167 163 189 176 152 138 133 10 328 341 351 352 355 11 88 139 223 216 212 213 216 219 218 217 220 223 222 223 223 225
259 276 281 278 282 293 304 28 319 289 135 148 176 160 148 245 180 165 158 144 65 1 5 339 333 345 358 18 21 38 219 216 213 212 216 216 216 220 224 226 225 225 226
258 269 273 279 282 284 288 107 68 325 111 129 165 154 192 294 206 176 158 154 149 132 330 319 326 333 351 21 15 19 12 221 202 209 211 214 219 222 225 227 226 224 225
256 265 271 267 270 273 256 133 262 299 86 294 193 119 259 284 305 129 143 146 158 164 207 277 287 315 333 5 13 20 3 5 328 231 212 208 215 222 226 229 228 225 229
243 242 243 239 243 250 232 181 216 182 152 316 324 193 277 247 138 78 136 140 154 160 197 282 296 322 353 1 358 13 14 11 347 287 229 217 214 217 220 227 230 226 228
242 235 231 226 235 236 222 210 232 220 208 238 260 244 273 237 171 125 145 157 173 180 179 229 319 343 343 333 339 350 3 11 1 357 251 214 207 208 217 227 229 229 230
236 234 219 224 231 229 221 224 223 226 223 228 226 220 239 206 218 209 189 191 193 166 167 181 273 320 331 336 357 355 357 350 349 351 356 131 196 207 222 234 236 235 235
223 226 220 222 223 222 219 221 217 216 224 230 226 219 223 212 215 205 200 203 179 145 136 153 218 323 320 320 9 359 351 354 340 349 358 11 359 293 272 264 258 252 247
223 221 219 224 226 225 225 218 214 214 217 228 232 230 233 227 221 207 196 190 172 162 149 145 190 310 314 333 309 303 314 325 332 349 332 346 1 348 328 308 293 272 256
221 215 218 221 230 239 240 224 208 207 211 210 225 239 248 249 232 214 206 191 178 172 176 172 188 209 253 249 251 270 284 11 330 345 349 315 323 288 301 317 312 299 272
214 215 222 220 230 242 241 229 212 194 201 210 215 224 241 222 204 182 183 177 185 193 185 173 182 213 220 223 201 211 177 179 251 313 353 307 314 292 308 335 344 337 312
209 217 223 221 227 238 229 215 198 184 189 206 209 207 209 227 198 169 150 131 129 156 177 168 174 202 207 203 199 192 183 192 296 341 31 324 330 313 326 343 7 19 14
214 214 214 212 216 232 219 202 183 164 181 210 218 209 204 210 201 166 147 143 127 81 90 106 113 106 89 88 111 116 106 101 337 343 15 13 330 315 307 320 8 30 30
218 212 214 212 212 221 216 202 186 167 179 199 211 224 213 196 192 175 163 161 164 179 126 93 69 60 57 53 68 100 150 151 170 313 348 12 341 351 325 309 347 10 10
Height
1513 1512 1511 1511 1510 1509 1509 1508 1508 1508 1508 1508 1508 1509 1510 1511 1512 1514 1515 1516 1518 1519 1520 1522 1523 1524 1526 1528 1529 1531 1532 1534 1535 1537 1538 1540 1541 1543 1544 1546 1547 1548 1550
1512 1511 1510 1509 1508 1508 1507 1507 1506 1506 1506 1506 1506 1507 1508 1509 1510 1512 1513 1515 1516 1517 1519 1520 1522 1523 1524 1526 1528 1530 1532 1533 1535 1537 1538 1540 1542 1543 1545 1546 1548 1549 1550
1511 1510 1509 1508 1507 1506 1505 1505 1504 1504 1504 1504 1505 1505 1506 1507 1508 1510 1511 1513 1514 1516 1517 1519 1520 1522 1523 1525 1526 1529 1531 1533 1534 1536 1538 1540 1542 1543 1545 1546 1548 1549 1551
1510 1509 1508 1507 1506 1505 1504 1503 1503 1503 1503 1503 1503 1504 1504 1505 1506 1508 1509 1511 1513 1514 1516 1517 1519 1520 1522 1523 1525 1527 1529 1531 1534 1536 1537 1539 1541 1543 1545 1546 1548 1549 1551
1509 1508 1507 1506 1505 1504 1503 1502 1502 1501 1501 1501 1502 1502 1503 1504 1505 1506 1507 1509 1511 1512 1514 1515 1517 1518 1520 1522 1524 1526 1528 1530 1532 1535 1536 1538 1540 1542 1544 1546 1548 1549 1551
1508 1507 1506 1505 1504 1503 1502 1501 1500 1500 1500 1500 1501 1501 1501 1502 1503 1504 1506 1507 1509 1510 1512 1514 1515 1517 1518 1520 1522 1524 1526 1529 1531 1533 1535 1537 1539 1541 1543 1545 1547 1549 1550
1508 1506 1505 1504 1503 1502 1501 1500 1500 1499 1499 1500 1500 1500 1501 1501 1502 1503 1504 1506 1507 1509 1510 1512 1513 1515 1517 1518 1520 1522 1524 1527 1529 1532 1534 1536 1538 1540 1542 1544 1546 1548 1550
1507 1506 1505 1504 1502 1501 1500 1500 1499 1499 1499 1499 1500 1500 1501 1502 1502 1502 1503 1504 1506 1507 1508 1510 1512 1514 1515 1517 1519 1521 1523 1525 1528 1530 1532 1535 1537 1539 1541 1543 1545 1547 1549
1507 1506 1504 1503 1502 1501 1500 1499 1499 1498 1498 1499 1499 1500 1500 1500 1501 1502 1502 1503 1504 1506 1507 1508 1510 1512 1513 1515 1517 1519 1521 1523 1525 1528 1530 1532 1534 1537 1539 1541 1543 1545 1547
1507 1506 1504 1503 1502 1501 1500 1499 1499 1498 1498 1498 1499 1499 1500 1500 1501 1501 1502 1502 1503 1504 1505 1507 1508 1510 1511 1513 1515 1517 1519 1521 1523 1526 1528 1530 1532 1535 1537 1539 1541 1543 1545
1507 1505 1504 1503 1502 1501 1500 1499 1498 1498 1498 1498 1498 1499 1499 1500 1500 1500 1500 1501 1502 1503 1504 1505 1507 1508 1510 1511 1513 1515 1516 1518 1521 1523 1525 1527 1530 1532 1534 1536 1539 1541 1543
1506 1505 1504 1503 1502 1501 1500 1499 1498 1498 1498 1498 1498 1498 1499 1499 1499 1500 1500 1500 1501 1502 1503 1504 1505 1506 1508 1509 1511 1512 1514 1516 1518 1520 1522 1525 1527 1529 1531 1533 1536 1538 1540
1506 1505 1504 1503 1502 1502 1501 1500 1499 1498 1497 1497 1498 1498 1498 1499 1499 1499 1500 1500 1500 1501 1502 1503 1504 1505 1506 1507 1509 1510 1512 1514 1516 1517 1520 1522 1524 1526 1528 1531 1532 1534 1536
1505 1505 1504 1503 1502 1501 1501 1500 1499 1498 1497 1497 1497 1497 1498 1498 1498 1499 1499 1500 1499 1500 1501 1502 1502 1503 1504 1506 1507 1508 1510 1511 1513 1515 1517 1518 1521 1523 1525 1527 1529 1531 1533
1505 1504 1504 1503 1502 1501 1500 1500 1499 1498 1497 1497 1497 1497 1497 1497 1498 1498 1498 1499 1500 1499 1500 1501 1501 1502 1503 1504 1505 1506 1507 1509 1510 1512 1513 1515 1517 1519 1521 1523 1525 1527 1529
1504 1503 1503 1502 1502 1501 1500 1499 1498 1498 1497 1497 1496 1496 1496 1496 1497 1497 1497 1498 1498 1499 1499 1499 1500 1501 1501 1502 1503 1504 1505 1506 1508 1509 1510 1512 1513 1515 1517 1519 1521 1523 1525
1502 1502 1502 1501 1501 1500 1500 1499 1498 1498 1497 1496 1496 1495 1495 1495 1495 1496 1496 1497 1497 1498 1498 1498 1499 1499 1500 1500 1501 1502 1503 1504 1505 1506 1507 1508 1510 1511 1513 1515 1517 1519 1520
1501 1500 1500 1500 1499 1499 1499 1498 1498 1497 1496 1496 1495 1494 1494 1494 1494 1495 1495 1495 1496 1496 1497 1497 1497 1498 1498 1498 1499 1499 1500 1501 1502 1503 1504 1505 1506 1508 1509 1511 1513 1514 1516
1498 1498 1498 1498 1498 1497 1497 1497 1496 1496 1495 1495 1494 1494 1493 1493 1493 1494 1494 1494 1494 1495 1495 1496 1496 1496 1496 1497 1497 1497 1498 1498 1499 1500 1501 1502 1503 1504 1506 1507 1508 1510 1511
1496 1496 1496 1495 1495 1495 1495 1495 1495 1494 1494 1493 1493 1493 1493 1492 1492 1492 1492 1493 1493 1493 1494 1494 1494 1495 1495 1495 1495 1495 1496 1496 1496 1497 1498 1499 1500 1501 1502 1503 1505 1506 1507
1493 1493 1493 1493 1493 1493 1493 1493 1492 1492 1492 1492 1491 1491 1491 1491 1491 1491 1491 1491 1491 1492 1492 1492 1492 1493 1493 1493 1493 1493 1493 1494 1494 1495 1495 1496 1497 1497 1498 1499 1500 1501 1502
1489 1489 1489 1489 1489 1490 1490 1490 1490 1489 1489 1489 1489 1489 1489 1489 1489 1489 1489 1490 1490 1490 1490 1490 1490 1491 1491 1492 1492 1492 1492 1492 1492 1493 1493 1493 1494 1494 1495 1495 1496 1497 1498
1485 1485 1486 1486 1486 1486 1486 1486 1486 1486 1486 1486 1486 1486 1486 1487 1487 1487 1488 1488 1488 1488 1489 1489 1489 1489 1489 1490 1490 1490 1490 1490 1490 1490 1490 1490 1491 1491 1491 1492 1492 1493 1493
1481 1481 1481 1482 1482 1482 1483 1483 1483 1483 1483 1483 1483 1483 1484 1484 1484 1485 1485 1485 1486 1486 1486 1487 1487 1487 1488 1488 1488 1488 1488 1488 1488 1487 1487 1487 1488 1488 1488 1489 1489 1489 1489
1475 1476 1476 1477 1477 1478 1479 1479 1479 1479 1479 1479 1480 1480 1480 1481 1481 1482 1483 1483 1483 1484 1484 1484 1485 1485 1485 1486 1486 1486 1486 1486 1486 1485 1485 1485 1485 1485 1485 1486 1486 1486 1486
1470 1471 1471 1472 1473 1473 1474 1475 1475 1475 1475 1476 1476 1476 1477 1477 1478 1479 1480 1480 1481 1481 1482 1482 1482 1483 1483 1483 1483 1484 1484 1484 1483 1483 1483 1483 1483 1483 1482 1482 1483 1482 1482